Point Lay, AK

4:57 AM AKST on January 16, 2017 (GMT -0900)
Point Lay

Weather History for PPIZ - December, 2013

Change the Weather History Date:

Saturday, December 21, 2013

  Actual Average Record
Temperature  
Mean Temperature -8 °F -  
Max Temperature 0 °F -1 °F 33 °F (1998)
Min Temperature -15 °F -6 °F -40 °F (2007)
Degree Days  
Heating Degree Days 73    
Moisture  
Dew Point -12 °F    
Average Humidity 80    
Maximum Humidity 85    
Minimum Humidity 78    
Precipitation  
Precipitation 0.00 in - - ()
Sea Level Pressure  
Sea Level Pressure 29.64 in    
Wind  
Wind Speed 30 mph (ENE)    
Max Wind Speed 36 mph    
Max Gust Speed 44 mph    
Averages and records for this station are not official NWS values.
T = Trace of Precipitation, MM = Missing Value Source: NWS Daily Summary

Daily Weather History Graph

Daily Weather History Graph

Search for Another Location

Airport or City:

Trip Planner

Search our weather history database for the weather conditions in past years. The results will help you decide how hot, cold, wet, or windy it might be!

Date:

Astronomy

Dec. 31, 1969 Rise Set
Actual Time Sun does not rise Sun does not rise
Civil Twilight 11:41 AM AKST 3:59 PM AKST
Nautical Twilight 9:55 AM AKST 5:45 PM AKST
Astronomical Twilight 8:36 AM AKST 7:04 PM AKST
Moon 9:44 PM AKST (12/21) 1:06 PM AKST (12/21)
Length of Visible Light 4h 18m
Length of Day
0h 00m
Waning Gibbous, 83% of the Moon is Illuminated
Dec 21
Waning Gibbous
Dec 25
Last Quarter
Jan 1
New
Jan 7
First Quarter
Jan 15
Full

Hourly Weather History & Observations

Time (AKST) Temp. Windchill Dew Point Humidity Pressure Visibility Wind Dir Wind Speed Gust Speed Precip Events Conditions
12:56 AM -15.9 °F -47.8 °F -20.9 °F 78% 29.74 in - NE 31.1 mph 36.8 mph 0.00 in Snow Light Snow
1:56 AM -15.9 °F -47.8 °F -20.9 °F 78% 29.73 in - NE 31.1 mph 36.8 mph 0.00 in Snow Light Snow
2:56 AM -13.9 °F -45.1 °F -18.9 °F 78% 29.69 in - NE 31.1 mph 40.3 mph 0.00 in Snow Light Snow
3:56 AM -13.0 °F -44.7 °F -17.9 °F 79% 29.68 in - ENE 33.4 mph 38.0 mph 0.00 in Snow Light Snow
4:56 AM -11.9 °F -44.0 °F -17.0 °F 78% 29.66 in - ENE 35.7 mph 42.6 mph 0.00 in Snow Light Snow
5:56 AM -11.9 °F -43.3 °F -17.0 °F 78% 29.64 in - NE 33.4 mph 40.3 mph 0.00 in Snow Light Snow
6:56 AM -9.9 °F -39.3 °F -15.0 °F 78% 29.64 in - ENE 29.9 mph 38.0 mph 0.00 in Snow Light Snow
7:56 AM -9.9 °F -40.1 °F -15.0 °F 78% 29.63 in - ENE 32.2 mph 43.7 mph 0.00 in Snow Light Snow
8:56 AM -8.9 °F -38.7 °F -13.9 °F 79% 29.61 in - ENE 32.2 mph - 0.00 in Snow Light Snow
9:56 AM -6.9 °F -36.3 °F -11.9 °F 79% 29.60 in - ENE 33.4 mph 39.1 mph 0.00 in Snow Light Snow
10:56 AM -6.9 °F -35.6 °F -10.8 °F 83% 29.60 in - ENE 31.1 mph 42.6 mph 0.00 in Snow Light Snow
11:56 AM -6.0 °F -35.5 °F -10.8 °F 79% 29.60 in - ENE 34.5 mph 41.4 mph 0.00 in Snow Light Snow
12:56 PM -6.9 °F -36.7 °F -10.8 °F 83% 29.60 in - ENE 34.5 mph 42.6 mph 0.00 in Snow Light Snow
1:56 PM -6.9 °F -35.2 °F -10.8 °F 83% 29.60 in - ENE 29.9 mph 38.0 mph 0.00 in Snow Light Snow
2:56 PM -6.0 °F -33.5 °F -10.8 °F 79% 29.61 in - ENE 28.8 mph 36.8 mph 0.00 in Snow Light Snow
3:56 PM -6.0 °F -33.9 °F -9.9 °F 83% 29.61 in - ENE 29.9 mph - 0.00 in Snow Light Snow
4:56 PM -6.0 °F -33.5 °F -9.9 °F 83% 29.62 in - ENE 28.8 mph - 0.00 in Snow Snow
5:56 PM -4.9 °F -30.3 °F -8.9 °F 83% 29.63 in - ENE 24.2 mph - 0.00 in Snow Light Snow
6:56 PM -2.9 °F -27.2 °F -8.0 °F 79% 29.63 in - ENE 23.0 mph - 0.00 in Snow Light Snow
7:56 PM -2.9 °F -27.6 °F -6.9 °F 83% 29.64 in - NE 24.2 mph 28.8 mph 0.00 in Snow Light Snow
8:56 PM -2.2 °F -24.7 °F -7.6 °F 78% 29.64 in - NE 19.6 mph 27.6 mph N/A Snow Light Snow
9:56 PM -1.8 °F -25.7 °F -6.0 °F 83% 29.66 in - NE 23.0 mph - 0.00 in Snow Light Snow
10:42 PM -2.2 °F -27.1 °F -5.8 °F 85% 29.66 in - ENE 25.3 mph - 0.00 in Snow Light Snow
10:56 PM -1.8 °F -24.7 °F -6.0 °F 83% 29.68 in - NE 20.7 mph - 0.00 in Snow Light Snow
11:39 PM -2.2 °F -25.2 °F -5.8 °F 85% 29.67 in - NE 20.7 mph - 0.00 in Snow Light Snow
11:56 PM -0.4 °F -22.3 °F -5.8 °F 78% 29.68 in - NE 19.6 mph - N/A Snow Light Snow